CAPE
0 0 0 0 0 0 0 0 0 0 0 0 0 0 0 0 0 0 0 0 0 0 0 0 0 36 179 135 37 31 17 13 10 0 0 0 0 0 0 3 6 0 0 0
0 0 0 0 0 0 0 0 0 0 0 0 0 0 0 0 0 0 0 0 0 0 0 0 0 0 159 249 129 78 57 19 9 7 5 0 0 0 0 2 3 0 0 0
0 0 0 0 0 0 0 0 0 0 0 0 0 0 0 0 0 0 0 0 0 0 0 0 0 0 0 79 250 101 97 69 34 24 5 0 0 0 0 0 0 1 0 0
0 0 0 0 0 0 0 0 0 0 0 0 0 0 0 0 0 0 0 0 0 0 0 0 0 0 0 0 225 279 54 55 19 11 8 1 6 0 2 0 0 0 0 0
0 0 0 0 0 0 0 0 0 0 0 0 0 0 0 0 0 0 0 0 0 0 0 0 0 0 0 0 0 196 186 46 44 6 13 0 6 18 9 0 0 0 0 0
0 0 0 0 0 0 0 0 0 0 0 0 0 0 0 0 0 0 0 0 0 0 0 0 0 0 0 0 0 0 2 22 28 25 14 0 2 11 0 0 0 0 0 0
0 0 0 0 0 0 0 0 0 0 0 0 0 0 0 0 0 0 0 0 0 0 0 0 0 0 0 0 0 0 0 0 17 34 22 8 2 0 0 0 0 0 1 0
0 0 0 0 0 0 0 0 0 0 0 0 0 0 0 0 0 0 0 0 0 0 0 0 0 0 0 0 0 0 0 0 0 23 20 17 9 0 0 0 0 0 0 0
0 0 0 0 0 0 0 0 0 0 0 0 0 0 0 0 0 0 0 0 0 0 0 0 0 0 0 0 0 0 0 0 0 0 16 27 14 2 0 0 0 0 0 0
0 0 0 0 0 0 0 0 0 0 0 0 0 0 0 0 0 0 0 0 0 0 0 0 0 0 0 0 0 0 0 0 0 0 0 60 10 4 6 2 2 1 0 0
0 0 0 0 0 0 0 0 0 0 0 0 0 0 0 0 0 0 0 0 0 0 0 0 0 0 0 0 0 0 0 0 0 0 1 1 84 33 5 9 0 0 0 0
0 0 0 0 0 0 0 0 0 0 0 0 0 0 0 0 0 0 0 0 0 0 0 0 0 0 0 0 0 0 0 0 0 0 0 1 0 104 75 0 0 0 2 3
0 0 0 0 0 0 0 0 0 0 0 0 0 0 0 0 0 0 0 0 0 0 0 0 0 0 0 0 0 0 0 0 0 0 0 1 1 1 1 1 0 0 1 0
0 0 0 0 0 0 0 0 0 0 0 0 0 0 0 0 0 0 0 0 0 0 0 0 0 0 0 0 0 0 0 0 0 0 0 0 1 0 1 2 2 3 2 0
0 0 0 0 0 0 0 0 0 1 0 0 0 0 0 0 0 0 0 0 0 0 0 0 0 0 0 0 0 0 0 0 0 0 1 0 1 0 0 0 1 1 1 2
0 0 0 0 0 0 0 0 0 0 0 1 0 0 0 0 0 0 0 0 0 0 0 0 0 0 0 0 0 0 0 0 0 0 0 2 0 0 0 1 1 3 5 5
0 0 0 0 0 0 0 0 0 0 0 0 0 0 0 0 0 0 0 0 0 0 0 0 0 0 0 0 0 0 0 0 0 0 1 1 1 1 1 2 2 2 2 3
0 0 0 0 0 0 0 0 0 0 0 0 0 0 0 0 0 0 0 0 0 0 0 0 0 0 0 0 0 0 0 0 0 2 1 1 1 1 2 2 3 3 2 1
0 0 0 0 0 0 0 0 0 0 0 0 0 0 0 0 0 0 0 0 0 0 1 1 0 0 0 0 0 0 0 0 2 2 1 2 1 2 2 2 2 3 0 0
0 0 0 0 0 0 0 0 0 0 0 0 0 0 0 0 0 0 0 0 0 2 1 0 0 0 0 0 0 0 0 2 2 2 2 1 2 3 3 4 3 2 0 0
0 0 0 0 0 0 0 0 0 0 0 0 0 0 0 0 0 0 0 0 0 0 0 0 0 0 0 0 0 1 2 1 2 1 1 2 3 4 3 2 1 0 0 0
0 0 0 0 0 0 0 0 0 0 0 0 0 0 0 0 0 0 0 0 1 0 0 0 0 0 0 1 1 1 0 1 0 0 1 2 2 1 1 0 1 2 0 0
0 0 0 0 0 0 0 0 0 0 0 0 0 0 0 0 0 0 0 1 0 2 0 0 0 1 0 0 0 0 0 0 0 0 0 0 0 0 0 0 0 0 0 0
0 0 0 0 0 0 0 0 0 0 0 0 0 0 0 0 0 0 0 1 0 0 0 0 0 0 0 0 0 0 0 0 0 0 0 0 0 0 0 0 0 0 0 0
0 0 0 0 0 0 0 0 0 0 0 0 0 0 0 0 0 0 0 0 0 1 0 0 0 0 0 0 0 0 0 0 0 0 0 0 0 0 0 0 0 0 0 0
0 0 0 0 0 0 0 0 0 0 0 0 0 0 0 0 0 0 0 0 0 0 0 0 0 0 0 0 0 0 0 0 0 0 0 0 0 0 0 0 0 0 0 0
CIN
0 0 0 0 0 0 0 0 0 0 0 0 0 0 0 0 0 0 0 0 0 0 0 0 0 -198 -138 -160 -233 -259 -219 -294 -329 0 0 0 0 0 -11 -30 -24 0 0 0
0 0 0 0 0 0 0 0 0 0 0 0 0 0 0 0 0 0 0 0 0 0 0 0 0 0 -114 -99 -209 -246 -244 -227 -315 -320 -279 0 0 0 0 -11 -19 0 0 0
0 0 0 0 0 0 0 0 0 0 0 0 0 0 0 0 0 0 0 0 0 0 0 0 0 0 0 -122 -102 -219 -254 -255 -309 -294 -254 0 0 0 0 0 -7 -7 0 0
0 0 0 0 0 0 0 0 0 0 0 0 0 0 0 0 0 0 0 0 0 0 0 0 0 0 0 -14 -33 -63 -247 -242 -272 -222 -202 -18 -170 0 -258 0 0 0 0 0
0 0 0 0 0 0 0 0 0 0 0 0 0 0 0 0 0 0 0 0 0 0 0 0 0 0 0 0 0 -10 -25 -165 -198 -216 -158 -68 -158 -202 -221 0 0 -10 0 0
0 0 0 0 0 0 0 0 0 0 0 0 0 0 0 0 0 0 0 0 0 0 0 0 0 0 0 0 0 0 -21 -133 -128 -162 -186 0 -152 -171 0 0 0 -1 -4 0
0 0 0 0 0 0 0 0 0 0 0 0 0 0 0 0 0 0 0 0 0 0 0 0 0 0 0 0 0 0 0 0 -88 -87 -129 -159 -219 0 0 0 0 0 -8 -3
0 0 0 0 0 0 0 0 0 0 0 0 0 0 0 0 0 0 0 0 0 0 0 0 0 0 0 0 0 0 0 0 0 -41 -69 -101 -128 -127 0 0 0 0 0 0
0 0 0 0 0 0 0 0 0 0 0 0 0 0 0 0 0 0 0 0 0 0 0 0 0 0 0 0 0 0 0 0 0 0 -13 -23 -51 -83 -18 0 0 0 0 0
0 0 0 0 0 0 0 0 0 0 0 0 0 0 0 0 0 0 0 0 0 0 0 0 0 0 0 0 0 0 0 0 0 0 0 -5 -25 -29 -42 -77 -36 -68 0 0
0 0 0 0 0 0 0 0 0 0 0 0 0 0 0 0 0 0 0 0 0 0 0 0 0 0 0 0 0 0 0 0 0 0 0 0 -13 -13 -91 -55 -24 0 0 0
0 0 0 0 0 0 0 0 0 0 0 0 0 0 0 0 0 0 0 0 0 0 0 0 0 0 0 0 0 0 0 0 0 0 0 0 0 -44 -73 -1 -4 0 0 0
0 0 0 0 0 0 0 0 0 0 0 0 0 0 0 0 0 0 0 0 0 0 0 0 0 0 0 0 0 0 0 0 0 0 0 0 0 0 0 0 0 0 0 0
0 0 0 0 0 0 0 0 0 0 0 0 0 0 0 0 0 0 0 0 0 0 0 0 0 0 0 0 0 0 0 0 0 0 0 0 0 0 0 0 0 0 0 0
0 0 0 0 0 0 0 0 0 0 0 0 0 0 0 0 0 0 0 0 0 0 0 0 0 0 0 0 0 0 0 0 0 0 0 0 0 0 0 0 0 0 0 0
0 0 0 0 0 0 0 0 0 0 0 0 0 0 0 0 0 0 0 0 0 0 0 0 0 0 0 0 0 0 0 0 0 0 0 0 0 0 0 0 0 0 0 0
0 0 0 0 0 0 0 0 0 0 0 0 0 0 0 0 0 0 0 0 0 0 0 0 0 0 0 0 0 0 0 0 0 0 0 0 0 0 0 0 0 0 0 0
0 0 0 0 0 0 0 0 0 0 0 0 0 0 0 0 0 0 0 0 0 0 0 0 0 0 0 0 0 0 0 0 0 0 0 0 0 0 0 0 0 0 0 0
0 0 0 0 0 0 0 0 0 0 0 0 0 0 0 0 0 0 0 0 0 0 0 0 0 0 0 0 0 0 0 0 0 0 0 0 0 0 0 0 0 0 0 0
0 0 0 0 0 0 0 0 0 0 0 0 0 0 0 0 0 0 0 0 0 0 0 0 0 0 0 0 0 0 0 0 0 0 0 0 0 0 0 0 0 0 0 0
0 0 0 0 0 0 0 0 0 0 0 0 0 0 0 0 0 0 0 0 0 0 0 0 0 0 0 0 0 0 0 0 0 0 0 0 0 0 0 0 0 0 0 0
0 0 0 0 0 0 0 0 0 0 0 0 0 0 0 0 0 0 0 0 0 0 0 0 0 0 0 0 0 0 0 0 0 0 0 0 0 0 0 0 0 0 0 0
0 0 0 0 0 0 0 0 0 0 0 0 0 0 0 0 0 0 0 0 0 0 0 0 0 0 0 0 0 0 0 0 0 0 0 0 0 0 0 0 0 0 0 0
0 0 0 0 0 0 0 0 0 0 0 0 0 0 0 0 0 0 0 0 0 0 0 0 0 0 0 0 0 0 0 0 0 0 0 0 0 0 0 0 0 0 0 0
0 0 0 0 0 0 0 0 0 0 0 0 0 0 0 0 0 0 0 0 0 0 0 0 0 0 0 0 0 0 0 0 0 0 0 0 0 0 0 0 0 0 0 0
0 0 0 0 0 0 0 0 0 0 0 0 0 0 0 0 0 0 0 0 0 0 0 0 0 0 0 0 0 0 0 0 0 0 0 0 0 0 0 0 0 0 0 0
Wind_Speed
33 40 44 40 38 36 36 39 48 46 38 49 52 62 62 57 56 58 57 54 50 48 44 43 39 42 41 36 35 33 30 27 27 27 27 27 27 25 26 23 23 23 22 19
31 40 35 34 36 38 39 41 45 39 40 48 52 58 55 52 49 51 56 55 54 51 48 44 42 39 39 43 36 39 34 31 29 30 29 29 28 29 27 26 25 24 23 20
32 30 30 34 36 42 40 40 41 44 40 38 44 51 47 53 50 45 45 44 44 47 54 54 44 41 40 40 42 41 39 35 32 30 30 29 27 30 30 28 27 25 23 23
25 27 32 34 36 37 40 35 37 39 43 50 39 53 47 45 46 38 39 39 40 41 43 47 54 47 41 40 39 42 44 40 36 32 32 33 31 31 32 31 31 31 28 27
29 28 33 32 33 32 32 33 33 34 33 34 39 40 41 42 43 36 33 31 31 33 34 36 39 47 42 37 35 40 43 46 40 36 34 34 36 35 32 32 30 30 30 28
24 22 25 28 29 29 30 35 33 31 33 37 35 38 45 41 35 38 35 31 29 29 31 29 29 30 39 39 38 35 37 44 43 38 37 36 36 34 33 32 32 30 31 30
28 25 23 25 31 28 38 40 45 44 42 39 31 38 32 34 38 34 36 30 28 27 26 28 29 30 29 31 39 45 42 40 42 41 39 40 38 35 34 32 31 31 30 31
32 34 25 24 29 30 32 34 39 45 44 42 34 29 30 29 30 32 28 28 29 29 29 31 31 32 32 32 32 34 43 43 41 41 39 39 40 39 37 33 31 30 29 28
28 26 23 22 25 26 29 32 28 32 31 37 34 28 24 25 32 25 26 33 37 36 36 35 36 36 36 34 33 33 35 41 46 36 36 35 37 37 38 36 33 31 29 26
22 27 22 23 26 21 21 24 32 32 43 45 41 33 24 26 28 28 39 40 41 41 41 43 42 40 39 37 36 35 34 36 39 40 42 43 40 38 37 34 33 33 29 26
21 20 24 26 23 25 27 27 27 27 28 37 44 39 23 21 20 28 40 43 47 50 49 47 45 43 43 40 39 38 36 35 36 38 38 41 42 40 33 33 31 29 29 26
18 21 26 25 20 18 19 23 24 31 32 27 29 33 22 15 15 24 36 49 48 49 48 48 47 45 44 42 40 39 37 37 36 36 37 38 39 42 37 34 30 28 27 25
18 22 32 30 24 24 25 21 18 23 25 26 28 32 24 22 23 22 20 28 40 46 50 48 46 44 43 41 40 38 36 37 36 35 36 34 35 36 37 35 30 25 26 17
15 17 19 26 23 26 25 21 17 19 23 24 22 28 27 24 23 20 19 18 26 28 44 46 45 42 41 40 39 36 34 35 35 34 33 33 31 32 33 32 32 28 22 18
14 22 17 19 21 23 23 21 17 15 15 20 25 24 25 22 21 21 20 18 17 17 29 42 43 42 41 39 36 33 33 32 32 33 32 31 28 25 27 27 27 27 23 20
17 24 25 26 25 26 25 18 14 13 14 16 20 23 20 21 20 20 22 21 18 18 16 43 37 42 44 41 37 34 34 33 32 31 31 29 27 24 21 18 20 23 22 18
18 20 27 30 29 38 25 21 19 19 16 18 21 20 20 23 26 25 24 24 25 21 21 18 44 44 44 44 39 36 34 33 31 30 28 26 23 23 22 20 18 17 17 15
18 18 22 29 32 31 27 20 17 16 16 15 15 16 19 21 25 26 25 26 28 26 21 19 34 39 38 37 36 33 32 31 30 29 27 25 22 19 18 17 16 15 14 11
9 14 23 28 29 31 26 21 22 25 22 13 16 20 22 22 24 25 26 27 28 20 14 16 3 34 35 30 28 30 31 29 27 26 25 24 21 20 17 14 12 11 9 8
14 11 16 24 31 31 24 20 20 25 24 16 19 24 26 25 27 25 27 25 23 10 10 3 5 21 18 18 20 24 27 25 24 23 23 20 18 16 14 11 9 7 6 4
18 17 16 21 27 26 19 11 19 25 24 22 22 20 21 24 18 22 21 20 16 14 8 6 8 10 13 12 16 19 19 19 16 16 15 13 10 9 8 7 6 5 4 4
17 19 19 17 23 29 10 18 20 22 26 23 16 14 15 16 17 17 19 20 15 13 11 11 9 10 11 11 10 12 12 11 8 8 9 8 6 5 4 5 5 4 3 2
22 18 22 16 18 17 14 20 19 24 20 14 11 10 11 12 15 15 17 22 17 12 12 12 12 12 13 17 18 15 6 4 3 3 2 3 4 2 1 3 3 4 4 4
23 18 25 26 18 20 21 19 18 14 12 10 7 7 8 9 10 11 15 23 26 16 13 15 16 18 20 21 25 28 27 5 11 10 5 2 2 1 1 2 3 4 6 2
20 19 22 24 21 17 15 11 10 7 13 11 10 6 6 5 7 11 10 16 22 20 18 19 22 25 27 30 30 32 33 34 33 25 12 6 3 5 4 6 5 3 5 5
16 22 17 18 13 15 14 15 15 14 18 36 33 20 11 5 4 7 8 13 18 21 24 26 28 29 30 30 28 30 29 29 29 27 25 22 8 4 4 5 6 10 6 8
Wind_Direction
17 13 9 11 9 5 357 351 337 334 333 311 295 281 276 278 273 267 265 264 262 263 265 265 267 262 260 258 256 252 252 249 247 249 251 251 252 252 254 257 255 256 257 256
18 14 16 15 11 7 3 356 350 349 342 321 302 287 283 276 275 274 269 265 264 263 262 264 265 267 263 260 258 253 251 250 247 248 250 253 254 254 254 257 258 257 257 256
18 19 18 15 12 7 5 3 359 351 350 339 315 296 289 280 276 278 277 273 273 269 262 261 268 269 267 264 259 255 253 250 248 246 250 254 256 258 256 255 257 258 257 258
21 18 14 14 12 10 6 7 0 357 355 338 335 303 296 289 274 274 280 278 275 276 271 266 261 264 268 268 266 260 254 252 250 246 248 248 250 254 256 257 259 260 259 260
13 13 9 12 12 11 7 4 0 355 356 357 350 322 305 298 279 271 283 283 286 283 279 275 273 266 268 271 275 267 261 253 251 248 246 250 252 256 259 258 259 260 261 261
14 15 15 12 10 9 5 4 2 12 11 6 2 345 325 305 287 281 286 284 291 294 288 286 289 286 272 270 271 275 272 259 252 249 247 249 251 254 256 258 259 263 265 264
9 12 13 13 8 14 7 7 3 6 9 4 5 352 342 329 293 287 283 279 288 300 299 294 292 291 292 285 273 269 270 271 257 251 249 250 251 253 255 257 260 263 266 266
8 3 13 16 11 6 8 13 8 1 2 354 349 359 357 348 322 296 288 285 286 295 299 298 296 290 289 290 287 280 268 266 269 253 252 252 253 254 256 259 261 264 265 269
12 10 13 11 8 12 12 10 12 359 354 0 5 2 352 5 339 323 289 290 290 290 293 295 296 293 288 289 286 283 276 263 258 268 257 256 255 256 258 259 261 263 266 269
17 2 15 11 7 14 11 14 8 9 1 1 3 355 356 357 353 334 295 295 289 288 290 289 291 290 287 287 284 279 281 276 271 266 264 256 259 260 262 260 260 261 265 267
18 17 6 3 10 7 7 9 12 13 8 2 2 2 10 356 354 342 315 300 294 288 283 286 285 286 285 285 285 282 277 276 274 269 269 262 259 255 259 260 261 261 264 265
17 9 358 356 3 8 10 7 11 7 6 3 357 354 2 350 348 352 332 300 296 290 286 283 284 283 283 282 283 282 280 278 279 274 268 265 263 254 257 256 257 262 267 271
16 7 357 5 13 12 6 6 5 6 360 354 1 360 12 6 339 327 310 278 319 301 284 283 282 282 281 282 281 282 280 282 282 280 276 272 266 260 257 257 256 262 259 261
13 3 356 347 341 348 336 336 334 343 352 355 338 331 332 335 341 334 328 310 273 305 301 282 280 280 282 281 281 280 281 283 282 281 279 273 273 265 261 260 259 259 256 248
358 346 340 329 327 328 319 321 329 329 319 341 334 339 330 331 331 330 328 322 309 289 324 297 281 277 280 283 280 278 281 284 284 279 278 277 275 275 267 267 266 262 259 259
345 342 347 334 341 348 337 328 324 328 331 317 315 323 319 323 328 332 336 336 327 322 299 300 297 282 277 279 277 276 279 283 283 282 278 276 274 271 273 269 269 267 263 261
342 343 347 342 349 342 350 360 3 3 360 356 351 339 341 340 341 336 337 340 337 330 329 321 289 281 278 275 274 272 276 279 281 277 278 278 276 273 268 267 265 264 264 264
336 342 344 338 346 347 351 354 349 348 345 346 343 345 344 337 342 341 344 342 346 334 326 319 303 282 281 279 274 273 275 276 277 275 272 271 270 271 270 266 264 264 263 264
318 333 341 340 341 334 349 4 0 0 352 12 9 1 356 348 347 356 5 2 350 340 330 351 285 283 285 286 281 273 272 273 272 270 268 265 264 261 261 262 258 259 251 256
346 331 335 341 334 336 346 357 4 359 358 16 7 357 356 356 360 350 359 351 355 348 19 52 214 325 329 307 294 281 273 271 270 268 262 264 261 255 254 251 248 233 227 227
345 339 313 321 328 332 327 334 355 353 355 358 350 346 355 4 356 333 344 353 9 37 63 98 103 89 52 13 322 293 275 271 272 268 260 259 260 247 240 234 231 211 200 183
336 337 332 330 329 334 359 4 345 344 343 344 337 337 340 350 351 349 3 10 23 48 70 81 100 102 95 98 72 320 283 274 289 275 257 248 237 235 226 209 212 199 204 195
327 320 326 317 327 333 329 326 330 334 330 292 321 315 344 346 358 353 13 25 37 61 83 93 97 93 99 94 96 65 313 307 22 49 200 203 215 175 215 229 236 240 250 257
320 312 315 322 299 289 292 286 278 286 299 281 300 314 345 340 350 5 27 31 36 63 87 90 93 91 86 103 123 123 126 54 70 77 90 138 145 195 268 11 4 277 266 347
316 319 317 312 278 299 290 285 287 289 335 342 349 331 313 328 21 31 39 49 51 61 79 84 91 100 105 109 131 122 125 118 109 86 71 67 63 57 37 30 30 341 325 335
296 301 298 313 316 319 316 336 339 326 324 295 276 259 251 38 32 44 62 70 73 79 81 91 99 103 114 119 133 129 129 132 129 144 160 158 207 326 333 316 348 63 323 311